Location: Newark
(44.3248°N, 23.7839°E)
Time: 05:59:08
(UTC+00:00)

FO-29 - Pass Details

Date: 27 April 2024
Orbit: 801 x 1320 km, 98.6° (Epoch: 28 May)

Event Time Altitude Azimuth Distance (km) Brightness Sun altitude
Rises 22:29:16 0° 28° (NNE) 4,271 13.7 -31.4°
Reaches altitude 10° 22:33:16 10° 47° (NE) 3,337 12.8 -31.4°
Maximum altitude 22:38:01 17° 85° (E) 2,841 12.0 -31.3°
Enters shadow 22:40:46 14° 109° (ESE) 3,015 11.9 -31.3°
